DW0967 Weather Reports


Display with metric or nautical units.
time (UTC)temp
F
wind
direction
speed
MPH
gust
MPH
rain 1hr
in
rain 24hr
in
rain mn
in
humidity
%
barometer
mb
20260503224705 68 14 7.0 12.0 0.00 0.00 0.00 23 1013.5
20260503224204 68 340 6.0 14.0 0.00 0.00 0.00 23 1013.6
20260503221704 70 338 13.0 21.0 0.00 0.00 0.00 21 1013.7
20260503220704 70 318 11.0 16.0 0.00 0.00 0.00 21 1014.0
20260503220204 69 336 12.0 22.0 0.00 0.00 0.00 21 1013.9
20260503214704 70 344 14.0 21.0 0.00 0.00 0.00 21 1014.0
20260503213204 69 8 11.0 18.0 0.00 0.00 0.00 20 1014.2
20260503211704 70 45 3.0 14.0 0.00 0.00 0.00 19 1014.6
20260503211204 70 62 5.0 9.0 0.00 0.00 0.00 20 1014.6
20260503204704 71 14 3.0 10.0 0.00 0.00 0.00 20 1014.9
20260503203204 71 65 4.0 10.0 0.00 0.00 0.00 19 1015.0
20260503200703 70 66 7.0 10.0 0.00 0.00 0.00 20 1015.6
20260503200204 70 83 5.0 12.0 0.00 0.00 0.00 20 1015.7
20260503194705 71 74 2.0 3.0 0.00 0.00 0.00 20 1015.8
20260503193704 71 93 3.0 7.0 0.00 0.00 0.00 20 1015.9
20260503193205 70 105 3.0 8.0 0.00 0.00 0.00 23 1016.0
20260503190704 70 108 3.0 8.0 0.00 0.00 0.00 20 1016.2
20260503183703 68 29 2.0 3.0 0.00 0.00 0.00 19 1016.8
20260503180704 70 129 5.0 9.0 0.00 0.00 0.00 22 1017.3
20260503180204 70 66 3.0 10.0 0.00 0.00 0.00 23 1017.4
20260503174705 70 175 3.0 7.0 0.00 0.00 0.00 23 1017.8
20260503173704 68 257 2.0 9.0 0.00 0.00 0.00 21 1018.0
20260503171204 66 65 0.0 6.0 0.00 0.00 0.00 25 1018.4
20260503170704 66 42 2.0 7.0 0.00 0.00 0.00 26 1018.4
20260503170203 65 166 2.0 5.0 0.00 0.00 0.00 24 1018.5
20260503120203 49 325 3.0 8.0 0.00 0.00 0.00 53 1018.7
20260503110704 51 268 3.0 7.0 0.00 0.00 0.00 39 1018.7
20260503110204 51 284 5.0 8.0 0.00 0.00 0.00 40 1018.7
20260503100204 53 278 6.0 12.0 0.00 0.00 0.00 37 1018.7
20260503090204 52 271 7.0 13.0 0.00 0.00 0.00 53 1019.2
20260503080204 55 318 6.0 14.0 0.00 0.00 0.00 32 1019.0
20260503070704 55 284 3.0 9.0 0.00 0.00 0.00 29 1019.4
20260503054708 54 348 2.0 5.0 0.00 0.00 0.00 26 1019.5
20260503054204 54 329 3.0 5.0 0.00 0.00 0.00 25 1019.5
20260503051704 54 266 2.0 3.0 0.00 0.00 0.00 25 1019.4
20260503050704 54 283 4.0 7.0 0.00 0.00 0.00 25 1019.5
20260503050204 54 329 5.0 9.0 0.00 0.00 0.00 25 1019.5
20260503043704 54 266 5.0 10.0 0.00 0.00 0.00 25 1019.5
20260503043204 55 304 3.0 6.0 0.00 0.00 0.00 25 1019.6
20260503041204 54 273 2.0 3.0 0.00 0.00 0.00 25 1019.6
20260503040704 55 245 1.0 3.0 0.00 0.00 0.00 24 1019.5
20260503034704 56 224 1.0 3.0 0.00 0.00 0.00 25 1019.5
20260503033704 56 187 1.0 3.0 0.00 0.00 0.00 28 1019.4
20260503033204 57 186 2.0 3.0 0.00 0.00 0.00 27 1019.3
20260503030705 59 179 1.0 3.0 0.00 0.00 0.00 26 1019.4
20260503024704 58 148 1.0 3.0 0.00 0.00 0.00 21 1019.4
20260503023204 59 117 0.0 0.0 0.00 0.00 0.00 17 1019.2
20260503021204 60 117 0.0 0.0 0.00 0.00 0.00 17 1018.9
20260503020204 61 117 0.0 3.0 0.00 0.00 0.00 16 1018.7
20260503014204 64 117 0.0 2.0 0.00 0.00 0.00 14 1018.6
20260503013704 65 117 1.0 3.0 0.00 0.00 0.00 13 1018.6
20260503011704 66 142 1.0 2.0 0.00 0.00 0.00 14 1018.5
20260503011204 66 142 1.0 3.0 0.00 0.00 0.00 14 1018.5
20260503004204 68 130 3.0 7.0 0.00 0.00 0.00 12 1018.5
20260503003704 68 136 2.0 5.0 0.00 0.00 0.00 13 1018.6
20260503001204 69 169 4.0 8.0 0.00 0.00 0.00 13 1018.6
20260503000704 69 106 2.0 3.0 0.00 0.00 0.00 12 1018.7
20260503000204 69 91 3.0 8.0 0.00 0.00 0.00 13 1018.7
20260502234204 69 129 2.0 7.0 0.00 0.00 0.00 13 1018.8
20260502233206 69 123 1.0 8.0 0.00 0.00 0.00 13 1018.8
20260502230204 70 75 3.0 10.0 0.00 0.00 0.00 15 1018.9